Meath Environmental Platform

Observations for Trim Patrick St

Time AQI Temp °C Hum % Pres Pa CO μg/m³ H₂S μg/m³ NO μg/m³ NO₂ μg/m³ O₃ μg/m³ SO₂ μg/m³ PM1 μg/m³ PM2.5 μg/m³ PM10 μg/m³
Sunday 2 August 2026
23:18 2 15.6 83 38,460 0.19 4.06 1.33 33.74 25.91 0 7.14 11.29 12.42
23:17 2 15.6 83 38,460 0.19 3.41 1.4 27.52 24.23 0 6.29 12.67 13.94
23:16 2 15.6 83 38,460 0.2 3.41 1.42 35.62 20.91 0 6.29 10.6 11.66
23:15 2 15.6 83 38,460 0.18 3.09 1.33 25.56 29.39 0 6.29 9.22 10.14
23:14 2 15.6 82 38,460 0.19 5.26 1.35 40.06 27.11 0 7.14 11.31 12.44
23:13 2 15.6 83 38,460 0.19 4.19 1.43 29.48 26.08 0 7.14 12.68 13.95
23:12 2 15.6 83 38,460 0.19 5.78 1.48 34.07 22.53 0 7.14 11.99 13.19
23:11 2 15.6 83 38,460 0.18 6.64 1.52 36.64 30.33 0 7.14 11.98 13.18
23:10 2 15.6 82 38,460 0.19 4.37 1.58 41.48 27.14 0 8 14.09 15.5
23:08 2 15.6 82 38,460 0.19 5.39 1.51 35.59 29.9 0 5.43 9.93 10.92
23:06 2 15.6 82 38,460 0.19 6.56 1.4 38.31 27.53 0 8 12.7 13.97
23:04 2 15.6 82 38,460 0.19 6.22 1.45 36.28 29.51 0 7.14 10.62 11.68
23:03 2 15.6 83 38,460 0.21 4.32 1.46 35.63 23.71 0 6.29 11.3 12.43
23:02 2 15.6 83 38,460 0.2 6.22 1.38 31.39 25.57 0 6.29 9.21 10.13
23:01 2 15.6 83 38,460 0.22 6.87 1.52 40.45 28.23 0 6.29 11.3 12.43
22:58 2 15.6 83 38,460 0.19 5.99 1.74 32.24 23.72 0 7.14 10.61 11.67
22:57 2 15.6 83 38,460 0.2 6.61 1.77 37.98 22.08 0 4.57 9.22 10.14
22:56 2 15.6 82 38,460 0.18 6.38 1.76 36.96 18.56 0 5.43 8.53 9.39
22:55 2 15.6 82 38,460 0.18 6.98 1.82 29.18 26.21 0 6.29 10.62 11.68
22:54 2 15.6 82 38,460 0.18 7.92 1.6 40.41 20.74 0 7.14 10.65 11.71